Back to catalog

FENGYUN 1C DEB

AliveSSO
NORAD 31387·DEBRIS·🇨🇳 China

Launched May 10, 1999 from Taiyuan Satellite Launch Center

Loading…

Next Passes (next 24 hours)

TLE

FreshSource: Space-Track

Epoch: Sep 14, 2026, 11:40 UTC

1 31387U 99025BST 26257.48659294  .00000289  00000-0  13444-3 0  9994
2 31387  99.1312 147.6819 0241786 114.6726 247.9830 14.13850288  1846

Track FENGYUN 1C DEB in real time with AllMySat

Download on the App Store